Time,TemperatureF,DewpointF,PressureIn,WindDirection,WindDirectionDegrees,WindSpeedMPH,WindSpeedGustMPH,Humidity,HourlyPrecipIn,Conditions,Clouds,dailyrainin,SolarRadiationWatts/m^2,SoftwareType,DateUTC
2013-03-21 00:08:00,27.9,20.0,29.70,NNE,26,0.0,0.0,73,0.00,,,0.00,0,weatherlink.com 1.10,2013-03-21 04:08:00,
2013-03-21 00:23:00,27.8,20.0,29.69,NE,34,0.0,0.0,73,0.00,,,0.00,0,weatherlink.com 1.10,2013-03-21 04:23:00,
2013-03-21 00:38:00,27.6,20.0,29.69,NNW,345,0.0,0.0,72,0.00,,,0.00,0,weatherlink.com 1.10,2013-03-21 04:38:00,
2013-03-21 00:53:00,27.5,20.0,29.69,NE,39,0.0,0.0,72,0.00,,,0.00,0,weatherlink.com 1.10,2013-03-21 04:53:00,
2013-03-21 01:08:00,27.2,19.0,29.70,NNE,32,0.0,0.0,70,0.00,,,0.00,0,weatherlink.com 1.10,2013-03-21 05:08:00,
2013-03-21 01:23:00,26.9,18.0,29.69,NNE,17,0.0,0.0,69,0.00,,,0.00,0,weatherlink.com 1.10,2013-03-21 05:23:00,
2013-03-21 01:38:00,26.6,18.0,29.70,NW,315,0.0,0.0,69,0.00,,,0.00,0,weatherlink.com 1.10,2013-03-21 05:38:00,
2013-03-21 01:53:00,26.4,17.0,29.70,North,360,0.0,0.0,69,0.00,,,0.00,0,weatherlink.com 1.10,2013-03-21 05:53:00,
2013-03-21 02:08:00,26.1,18.0,29.70,WSW,254,0.0,0.0,70,0.00,,,0.00,0,weatherlink.com 1.10,2013-03-21 06:08:00,
2013-03-21 02:23:00,25.6,17.0,29.70,North,10,0.0,0.0,71,0.00,,,0.00,0,weatherlink.com 1.10,2013-03-21 06:23:00,
2013-03-21 02:38:00,24.9,17.0,29.69,NNE,27,0.0,0.0,72,0.00,,,0.00,0,weatherlink.com 1.10,2013-03-21 06:38:00,
2013-03-21 02:53:00,24.4,17.0,29.69,North,5,0.0,0.0,73,0.00,,,0.00,0,weatherlink.com 1.10,2013-03-21 06:53:00,
2013-03-21 03:08:00,24.0,17.0,29.69,North,355,0.0,0.0,74,0.00,,,0.00,0,weatherlink.com 1.10,2013-03-21 07:08:00,
2013-03-21 03:23:00,23.5,17.0,29.69,NE,38,0.0,0.0,75,0.00,,,0.00,0,weatherlink.com 1.10,2013-03-21 07:23:00,
2013-03-21 03:38:00,23.1,17.0,29.69,West,263,0.0,0.0,76,0.00,,,0.00,0,weatherlink.com 1.10,2013-03-21 07:38:00,
2013-03-21 03:54:00,22.9,16.0,29.68,WSW,254,0.0,0.0,76,0.00,,,0.00,0,weatherlink.com 1.10,2013-03-21 07:54:00,
2013-03-21 04:08:00,22.6,16.0,29.68,WNW,299,0.0,0.0,76,0.00,,,0.00,0,weatherlink.com 1.10,2013-03-21 08:08:00,
2013-03-21 04:23:00,22.2,16.0,29.68,North,5,0.0,0.0,77,0.00,,,0.00,0,weatherlink.com 1.10,2013-03-21 08:23:00,
2013-03-21 04:39:00,22.0,16.0,29.68,NNE,26,0.0,0.0,77,0.00,,,0.00,0,weatherlink.com 1.10,2013-03-21 08:39:00,
2013-03-21 04:54:00,21.7,16.0,29.68,WNW,284,0.0,0.0,78,0.00,,,0.00,0,weatherlink.com 1.10,2013-03-21 08:54:00,
2013-03-21 05:09:00,21.3,15.0,29.69,NNW,333,0.0,0.0,78,0.00,,,0.00,0,weatherlink.com 1.10,2013-03-21 09:09:00,
2013-03-21 05:24:00,21.1,16.0,29.68,NNW,343,0.0,0.0,80,0.00,,,0.00,0,weatherlink.com 1.10,2013-03-21 09:24:00,
2013-03-21 05:39:00,20.9,16.0,29.68,NW,313,0.0,0.0,80,0.00,,,0.00,0,weatherlink.com 1.10,2013-03-21 09:39:00,
2013-03-21 05:54:00,20.7,15.0,29.68,NNW,327,0.0,0.0,80,0.00,,,0.00,0,weatherlink.com 1.10,2013-03-21 09:54:00,
2013-03-21 06:09:00,20.4,15.0,29.68,ENE,67,0.0,0.0,81,0.00,,,0.00,0,weatherlink.com 1.10,2013-03-21 10:09:00,
2013-03-21 06:24:00,20.3,15.0,29.68,NNW,342,0.0,0.0,80,0.00,,,0.00,0,weatherlink.com 1.10,2013-03-21 10:24:00,
2013-03-21 06:39:00,20.2,15.0,29.68,West,261,0.0,0.0,81,0.00,,,0.00,0,weatherlink.com 1.10,2013-03-21 10:39:00,
2013-03-21 06:54:00,20.1,15.0,29.68,WNW,303,0.0,0.0,81,0.00,,,0.00,0,weatherlink.com 1.10,2013-03-21 10:54:00,
2013-03-21 07:09:00,20.1,15.0,29.69,NNW,341,0.0,0.0,81,0.00,,,0.00,9,weatherlink.com 1.10,2013-03-21 11:09:00,
2013-03-21 07:24:00,19.9,15.0,29.69,NNW,336,0.0,0.0,81,0.00,,,0.00,21,weatherlink.com 1.10,2013-03-21 11:24:00,
2013-03-21 07:39:00,20.3,15.0,29.68,West,273,0.0,0.0,81,0.00,,,0.00,28,weatherlink.com 1.10,2013-03-21 11:39:00,
2013-03-21 07:54:00,21.0,16.0,29.68,West,273,0.0,0.0,80,0.00,,,0.00,51,weatherlink.com 1.10,2013-03-21 11:54:00,
2013-03-21 08:09:00,22.0,16.0,29.68,NNE,17,0.0,0.0,79,0.00,,,0.00,83,weatherlink.com 1.10,2013-03-21 12:09:00,
2013-03-21 08:24:00,23.8,18.0,29.68,North,355,0.0,0.0,77,0.00,,,0.00,148,weatherlink.com 1.10,2013-03-21 12:24:00,
2013-03-21 08:39:00,23.9,17.0,29.68,NNW,339,0.0,0.0,76,0.00,,,0.00,130,weatherlink.com 1.10,2013-03-21 12:39:00,
2013-03-21 08:54:00,23.9,17.0,29.68,North,5,0.0,0.0,76,0.00,,,0.00,188,weatherlink.com 1.10,2013-03-21 12:54:00,
2013-03-21 09:09:00,24.6,17.0,29.68,NNE,17,0.0,0.0,74,0.00,,,0.00,353,weatherlink.com 1.10,2013-03-21 13:09:00,
2013-03-21 09:24:00,25.8,18.0,29.67,South,186,0.0,0.0,72,0.00,,,0.00,408,weatherlink.com 1.10,2013-03-21 13:24:00,
2013-03-21 09:39:00,26.1,18.0,29.67,WNW,282,0.0,0.0,72,0.00,,,0.00,420,weatherlink.com 1.10,2013-03-21 13:39:00,
2013-03-21 09:54:00,26.8,18.0,29.66,NE,40,0.0,0.0,70,0.00,,,0.00,454,weatherlink.com 1.10,2013-03-21 13:54:00,
2013-03-21 10:09:00,27.2,19.0,29.67,NNW,339,0.0,0.0,70,0.00,,,0.00,489,weatherlink.com 1.10,2013-03-21 14:09:00,
2013-03-21 10:24:00,28.7,20.0,29.66,NNE,17,0.0,0.0,69,0.00,,,0.00,533,weatherlink.com 1.10,2013-03-21 14:24:00,
2013-03-21 10:39:00,28.0,19.0,29.67,NNE,32,0.0,0.0,68,0.00,,,0.00,580,weatherlink.com 1.10,2013-03-21 14:39:00,
2013-03-21 10:54:00,28.3,19.0,29.67,NNE,24,0.0,0.0,67,0.00,,,0.00,610,weatherlink.com 1.10,2013-03-21 14:54:00,
2013-03-21 11:10:00,29.4,19.0,29.66,NNE,33,0.0,0.0,66,0.00,,,0.00,527,weatherlink.com 1.10,2013-03-21 15:10:00,
2013-03-21 11:24:00,29.5,19.0,29.66,NE,34,0.0,0.0,64,0.00,,,0.00,360,weatherlink.com 1.10,2013-03-21 15:24:00,
2013-03-21 11:39:00,30.1,18.0,29.66,NE,42,0.0,0.0,61,0.00,,,0.00,366,weatherlink.com 1.10,2013-03-21 15:39:00,
2013-03-21 11:54:00,30.3,18.0,29.66,NNE,16,0.0,0.0,60,0.00,,,0.00,367,weatherlink.com 1.10,2013-03-21 15:54:00,
2013-03-21 12:09:00,30.0,18.0,29.66,North,5,0.0,0.0,60,0.00,,,0.00,352,weatherlink.com 1.10,2013-03-21 16:09:00,
2013-03-21 12:24:00,30.8,18.0,29.66,North,355,0.0,0.0,60,0.00,,,0.00,701,weatherlink.com 1.10,2013-03-21 16:24:00,
2013-03-21 12:39:00,32.8,19.0,29.66,NNE,13,0.0,0.0,58,0.00,,,0.00,939,weatherlink.com 1.10,2013-03-21 16:39:00,
2013-03-21 12:54:00,32.5,17.0,29.66,NNE,20,0.0,0.0,54,0.00,,,0.00,399,weatherlink.com 1.10,2013-03-21 16:54:00,
2013-03-21 13:09:00,32.3,17.0,29.65,NNE,19,0.0,0.0,54,0.00,,,0.00,501,weatherlink.com 1.10,2013-03-21 17:09:00,
2013-03-21 13:25:00,32.1,17.0,29.65,NNE,33,0.0,0.0,54,0.00,,,0.00,557,weatherlink.com 1.10,2013-03-21 17:25:00,
2013-03-21 13:40:00,32.9,16.0,29.65,NNE,27,0.0,0.0,50,0.00,,,0.00,520,weatherlink.com 1.10,2013-03-21 17:40:00,
2013-03-21 13:55:00,32.9,16.0,29.64,West,275,0.0,0.0,51,0.00,,,0.00,592,weatherlink.com 1.10,2013-03-21 17:55:00,
2013-03-21 14:10:00,33.7,17.0,29.64,NNE,17,0.0,0.0,50,0.00,,,0.00,642,weatherlink.com 1.10,2013-03-21 18:10:00,
2013-03-21 14:25:00,33.2,17.0,29.64,NNE,24,0.0,0.0,52,0.00,,,0.00,392,weatherlink.com 1.10,2013-03-21 18:25:00,
2013-03-21 14:40:00,32.1,17.0,29.63,ENE,57,0.0,0.0,55,0.00,,,0.00,299,weatherlink.com 1.10,2013-03-21 18:40:00,
2013-03-21 14:55:00,33.2,18.0,29.63,North,5,0.0,0.0,55,0.00,,,0.00,371,weatherlink.com 1.10,2013-03-21 18:55:00,
2013-03-21 15:10:00,32.9,18.0,29.63,West,271,0.0,0.0,54,0.00,,,0.00,397,weatherlink.com 1.10,2013-03-21 19:10:00,
2013-03-21 15:25:00,32.9,18.0,29.63,North,10,0.0,0.0,55,0.00,,,0.00,271,weatherlink.com 1.10,2013-03-21 19:25:00,
2013-03-21 15:40:00,31.7,21.0,29.63,WNW,294,0.0,0.0,66,0.00,,,0.00,376,weatherlink.com 1.10,2013-03-21 19:40:00,
2013-03-21 15:55:00,31.9,22.0,29.64,NNE,12,0.0,0.0,68,0.00,,,0.00,313,weatherlink.com 1.10,2013-03-21 19:55:00,
2013-03-21 16:10:00,30.9,22.0,29.64,North,11,0.0,0.0,70,0.00,,,0.00,503,weatherlink.com 1.10,2013-03-21 20:10:00,
2013-03-21 16:25:00,31.7,22.0,29.64,West,262,0.0,0.0,68,0.00,,,0.00,167,weatherlink.com 1.10,2013-03-21 20:25:00,
2013-03-21 16:40:00,30.5,21.0,29.64,NNE,18,0.0,0.0,68,0.00,,,0.00,197,weatherlink.com 1.10,2013-03-21 20:40:00,
2013-03-21 16:55:00,31.0,22.0,29.64,North,360,0.0,0.0,68,0.00,,,0.00,316,weatherlink.com 1.10,2013-03-21 20:55:00,
2013-03-21 17:10:00,30.7,21.0,29.64,North,9,0.0,0.0,66,0.00,,,0.00,167,weatherlink.com 1.10,2013-03-21 21:10:00,
2013-03-21 17:25:00,30.6,21.0,29.64,NE,38,0.0,0.0,68,0.00,,,0.00,144,weatherlink.com 1.10,2013-03-21 21:25:00,
2013-03-21 17:40:00,30.6,21.0,29.64,North,355,0.0,0.0,67,0.00,,,0.00,121,weatherlink.com 1.10,2013-03-21 21:40:00,
2013-03-21 17:55:00,30.6,21.0,29.65,North,5,0.0,0.0,68,0.00,,,0.00,130,weatherlink.com 1.10,2013-03-21 21:55:00,
2013-03-21 18:10:00,29.4,21.0,29.65,North,5,0.0,0.0,70,0.00,,,0.00,53,weatherlink.com 1.10,2013-03-21 22:10:00,
2013-03-21 18:27:00,29.2,20.0,29.65,North,5,0.0,0.0,68,0.00,,,0.00,35,weatherlink.com 1.10,2013-03-21 22:27:00,
2013-03-21 18:40:00,28.9,19.0,29.65,North,355,0.0,0.0,67,0.00,,,0.00,21,weatherlink.com 1.10,2013-03-21 22:40:00,
2013-03-21 18:55:00,28.7,19.0,29.66,NNE,24,0.0,0.0,66,0.00,,,0.00,16,weatherlink.com 1.10,2013-03-21 22:55:00,
2013-03-21 19:10:00,28.3,18.0,29.66,NNE,12,0.0,0.0,66,0.00,,,0.00,5,weatherlink.com 1.10,2013-03-21 23:10:00,
2013-03-21 19:25:00,28.1,18.0,29.66,NE,52,0.0,0.0,67,0.00,,,0.00,0,weatherlink.com 1.10,2013-03-21 23:25:00,
2013-03-21 19:40:00,27.9,18.0,29.66,NNE,26,0.0,0.0,67,0.00,,,0.00,0,weatherlink.com 1.10,2013-03-21 23:40:00,
2013-03-21 19:55:00,27.7,18.0,29.67,NW,321,0.0,0.0,67,0.00,,,0.00,0,weatherlink.com 1.10,2013-03-21 23:55:00,
2013-03-21 20:10:00,27.6,18.0,29.66,NW,309,0.0,0.0,68,0.00,,,0.00,0,weatherlink.com 1.10,2013-03-22 00:10:00,
2013-03-21 20:25:00,27.3,18.0,29.66,NW,319,0.0,0.0,68,0.00,,,0.00,0,weatherlink.com 1.10,2013-03-22 00:25:00,
2013-03-21 20:40:00,27.2,19.0,29.66,West,261,0.0,0.0,70,0.00,,,0.00,0,weatherlink.com 1.10,2013-03-22 00:40:00,
2013-03-21 20:55:00,27.1,19.0,29.66,WSW,244,0.0,0.0,70,0.00,,,0.00,0,weatherlink.com 1.10,2013-03-22 00:55:00,
2013-03-21 21:10:00,27.0,19.0,29.66,East,83,0.0,0.0,72,0.00,,,0.00,0,weatherlink.com 1.10,2013-03-22 01:10:00,
2013-03-21 21:25:00,26.7,20.0,29.66,WNW,282,0.0,0.0,76,0.00,,,0.00,0,weatherlink.com 1.10,2013-03-22 01:25:00,
2013-03-21 21:40:00,26.3,21.0,29.66,NNW,336,0.0,0.0,79,0.00,,,0.00,0,weatherlink.com 1.10,2013-03-22 01:40:00,
2013-03-21 21:55:00,26.0,21.0,29.66,WNW,286,0.0,0.0,81,0.00,,,0.00,0,weatherlink.com 1.10,2013-03-22 01:55:00,
2013-03-21 22:10:00,25.8,21.0,29.66,West,262,0.0,0.0,82,0.00,,,0.00,0,weatherlink.com 1.10,2013-03-22 02:10:00,
2013-03-21 22:25:00,25.7,21.0,29.66,WNW,286,0.0,0.0,83,0.00,,,0.00,0,weatherlink.com 1.10,2013-03-22 02:25:00,
2013-03-21 22:40:00,25.7,22.0,29.66,WNW,287,0.0,0.0,84,0.00,,,0.00,0,weatherlink.com 1.10,2013-03-22 02:40:00,
2013-03-21 22:55:00,25.5,21.0,29.66,NW,311,0.0,0.0,84,0.00,,,0.00,0,weatherlink.com 1.10,2013-03-22 02:55:00,
2013-03-21 23:10:00,25.3,21.0,29.65,WNW,294,0.0,0.0,83,0.00,,,0.00,0,weatherlink.com 1.10,2013-03-22 03:10:00,
2013-03-21 23:25:00,25.1,21.0,29.65,WNW,292,0.0,0.0,83,0.00,,,0.00,0,weatherlink.com 1.10,2013-03-22 03:25:00,
2013-03-21 23:40:00,25.0,21.0,29.65,WNW,292,0.0,0.0,84,0.00,,,0.00,0,weatherlink.com 1.10,2013-03-22 03:40:00,
2013-03-21 23:55:00,25.1,21.0,29.65,WNW,293,0.0,0.0,84,0.00,,,0.00,0,weatherlink.com 1.10,2013-03-22 03:55:00,